Durant, OK

11:14 AM CDT on July 27, 2017 (GMT -0500)
Eaker

Weather History for KDUA - March, 2013

Change the Weather History Date:

Monday, March 4, 2013

  Actual Average (KMLC) Record (KMLC)
Temperature  
Mean Temperature 68 °F -  
Max Temperature 82 °F 58 °F 84 °F (1961)
Min Temperature 51 °F 35 °F 8 °F (2002)
Cooling Degree Days 2    
Growing Degree Days 18 (Base 50)    
Moisture  
Dew Point 40 °F    
Average Humidity 43    
Maximum Humidity 67    
Minimum Humidity 16    
Precipitation  
Precipitation 0.00 in - - ()
Sea Level Pressure  
Sea Level Pressure 29.66 in    
Wind  
Wind Speed 17 mph (WSW)    
Max Wind Speed 29 mph    
Max Gust Speed 40 mph    
Visibility 10 miles    
Events      
Averages and records for this station are not official NWS values.
T = Trace of Precipitation, MM = Missing Value Source: NWS Daily Summary

Daily Weather History Graph

Daily Weather History Graph

Search for Another Location

Airport or City:

Trip Planner

Search our weather history database for the weather conditions in past years. The results will help you decide how hot, cold, wet, or windy it might be!

Date:

Astronomy

Mar. 04, 2013 Rise Set
Actual Time 6:50 AM CST 6:24 PM CST
Civil Twilight 6:25 AM CST 6:49 PM CST
Nautical Twilight 5:56 AM CST 7:18 PM CST
Astronomical Twilight 5:27 AM CST 7:47 PM CST
Moon 12:49 AM CST (3/4) 11:19 AM CST (3/4)
Length of Visible Light 12h 24m
Length of Day
11h 34m
Waning Gibbous, 52% of the Moon is Illuminated
Mar 4
Waning Gibbous
Mar 4
Last Quarter
Mar 11
New
Mar 19
First Quarter
Mar 27
Full

Hourly Weather History & Observations

Time (CST) Temp. Dew Point Humidity Pressure Visibility Wind Dir Wind Speed Gust Speed Precip Events Conditions
12:15 AM 59.0 °F 39.2 °F 48% 29.76 in 10.0 mi South 17.3 mph 23.0 mph N/A   Clear
12:35 AM 59.0 °F 41.0 °F 51% 29.75 in 10.0 mi South 18.4 mph 23.0 mph N/A   Clear
12:55 AM 57.2 °F 41.0 °F 55% 29.74 in 10.0 mi South 19.6 mph 28.8 mph N/A   Clear
1:15 AM 57.2 °F 42.8 °F 59% 29.73 in 10.0 mi South 17.3 mph 26.5 mph N/A   Clear
1:55 AM 57.2 °F 42.8 °F 59% 29.72 in 10.0 mi South 20.7 mph 24.2 mph N/A   Clear
2:15 AM 57.2 °F 42.8 °F 59% 29.72 in 10.0 mi South 18.4 mph 21.9 mph N/A   Clear
2:35 AM 55.4 °F 42.8 °F 63% 29.71 in 10.0 mi South 16.1 mph 24.2 mph N/A   Clear
2:55 AM 55.4 °F 41.0 °F 58% 29.71 in 10.0 mi South 15.0 mph - N/A   Clear
3:35 AM 55.4 °F 41.0 °F 58% 29.70 in 10.0 mi South 16.1 mph 23.0 mph N/A   Clear
3:55 AM 55.4 °F 41.0 °F 58% 29.69 in 10.0 mi South 19.6 mph 24.2 mph N/A   Clear
4:15 AM 55.4 °F 41.0 °F 58% 29.69 in 10.0 mi South 19.6 mph 24.2 mph N/A   Clear
4:35 AM 55.4 °F 41.0 °F 58% 29.68 in 10.0 mi South 17.3 mph 24.2 mph N/A   Clear
5:15 AM 55.4 °F 41.0 °F 58% 29.68 in 10.0 mi South 15.0 mph - N/A   Clear
5:35 AM 55.4 °F 41.0 °F 58% 29.67 in 10.0 mi South 17.3 mph 23.0 mph N/A   Clear
5:55 AM 55.4 °F 42.8 °F 63% 29.67 in 10.0 mi South 16.1 mph 23.0 mph N/A   Clear
6:15 AM 55.4 °F 42.8 °F 63% 29.67 in 10.0 mi SSW 16.1 mph 20.7 mph N/A   Clear
6:35 AM 53.6 °F 42.8 °F 67% 29.66 in 10.0 mi South 15.0 mph 20.7 mph N/A   Clear
6:55 AM 55.4 °F 42.8 °F 63% 29.65 in 10.0 mi SSW 17.3 mph 25.3 mph N/A   Clear
7:15 AM 55.4 °F 42.8 °F 63% 29.65 in 10.0 mi SSW 15.0 mph 26.5 mph N/A   Clear
7:35 AM 55.4 °F 41.0 °F 58% 29.64 in 10.0 mi SSW 17.3 mph 24.2 mph N/A   Clear
7:55 AM 55.4 °F 42.8 °F 63% 29.65 in 10.0 mi SSW 18.4 mph 23.0 mph N/A   Clear
8:15 AM 57.2 °F 42.8 °F 59% 29.64 in 10.0 mi SSW 20.7 mph 25.3 mph N/A   Clear
8:35 AM 59.0 °F 42.8 °F 55% 29.64 in 10.0 mi SSW 18.4 mph 25.3 mph N/A   Clear
8:55 AM 59.0 °F 41.0 °F 51% 29.64 in 10.0 mi SSW 19.6 mph 23.0 mph N/A   Clear
9:15 AM 59.0 °F 41.0 °F 51% 29.64 in 10.0 mi SSW 19.6 mph 27.6 mph N/A   Clear
9:35 AM 60.8 °F 41.0 °F 48% 29.63 in 10.0 mi SSW 18.4 mph 27.6 mph N/A   Clear
9:55 AM 60.8 °F 41.0 °F 48% 29.63 in 10.0 mi SSW 23.0 mph 27.6 mph N/A   Clear
10:15 AM 62.6 °F 41.0 °F 45% 29.63 in 10.0 mi SW 18.4 mph 26.5 mph N/A   Clear
10:35 AM 64.4 °F 41.0 °F 42% 29.63 in 10.0 mi SW 19.6 mph 25.3 mph N/A   Clear
10:55 AM 68.0 °F 37.4 °F 33% 29.63 in 10.0 mi SSW 20.7 mph 28.8 mph N/A   Clear
11:15 AM 68.0 °F 37.4 °F 33% 29.62 in 10.0 mi SW 21.9 mph 31.1 mph N/A   Clear
11:35 AM 69.8 °F 37.4 °F 31% 29.63 in 10.0 mi SW 21.9 mph 29.9 mph N/A   Clear
11:55 AM 71.6 °F 37.4 °F 29% 29.63 in 10.0 mi SW 23.0 mph 27.6 mph N/A   Clear
12:15 PM 71.6 °F 37.4 °F 29% 29.62 in 10.0 mi WSW 24.2 mph 28.8 mph N/A   Clear
12:35 PM 73.4 °F 37.4 °F 27% 29.61 in 10.0 mi SW 21.9 mph - N/A   Scattered Clouds
12:55 PM 77.0 °F 37.4 °F 24% 29.59 in 10.0 mi SW 23.0 mph 26.5 mph N/A   Scattered Clouds
1:15 PM 77.0 °F 35.6 °F 22% 29.59 in 10.0 mi SW 16.1 mph 26.5 mph N/A   Clear
1:35 PM 80.6 °F 35.6 °F 20% 29.58 in 10.0 mi WSW 16.1 mph 21.9 mph N/A   Clear
1:55 PM 82.4 °F 32.0 °F 16% 29.58 in 10.0 mi West 13.8 mph 21.9 mph N/A   Clear
2:15 PM 82.4 °F 32.0 °F 16% 29.58 in 10.0 mi West 15.0 mph 23.0 mph N/A   Clear
2:35 PM 82.4 °F 32.0 °F 16% 29.59 in 10.0 mi West 15.0 mph 21.9 mph N/A   Clear
2:55 PM 82.4 °F 33.8 °F 17% 29.59 in 10.0 mi WNW 13.8 mph 21.9 mph N/A   Clear
3:15 PM 82.4 °F 35.6 °F 19% 29.59 in 10.0 mi WNW 9.2 mph 18.4 mph N/A   Clear
3:35 PM 82.4 °F 35.6 °F 19% 29.59 in 10.0 mi WNW 12.7 mph 21.9 mph N/A   Clear
3:55 PM 82.4 °F 35.6 °F 19% 29.59 in 10.0 mi WNW 11.5 mph 16.1 mph N/A   Clear
4:15 PM 82.4 °F 35.6 °F 19% 29.59 in 10.0 mi WNW 11.5 mph - N/A   Clear
4:35 PM 82.4 °F 35.6 °F 19% 29.59 in 10.0 mi NW 9.2 mph - N/A   Clear
4:55 PM 82.4 °F 35.6 °F 19% 29.59 in 10.0 mi NW 9.2 mph - N/A   Clear
5:35 PM 80.6 °F 37.4 °F 21% 29.61 in 10.0 mi NW 6.9 mph - N/A   Clear
5:55 PM 78.8 °F 39.2 °F 24% 29.62 in 10.0 mi NW 6.9 mph - N/A   Clear
6:15 PM 73.4 °F 39.2 °F 29% 29.63 in 10.0 mi NNW 6.9 mph - N/A   Clear
6:35 PM 71.6 °F 39.2 °F 31% 29.63 in 10.0 mi North 6.9 mph - N/A   Clear
6:55 PM 69.8 °F 39.2 °F 33% 29.64 in 10.0 mi West 6.9 mph - N/A   Clear
7:15 PM 68.0 °F 39.2 °F 35% 29.65 in 10.0 mi NE 3.5 mph - N/A   Clear
7:35 PM 68.0 °F 39.2 °F 35% 29.66 in 10.0 mi Calm Calm - N/A   Clear
7:55 PM 64.4 °F 41.0 °F 42% 29.68 in 10.0 mi NE 3.5 mph - N/A   Clear
8:15 PM 62.6 °F 41.0 °F 45% 29.69 in 10.0 mi NE 8.1 mph - N/A   Clear
8:35 PM 62.6 °F 41.0 °F 45% 29.69 in 10.0 mi NNE 10.4 mph - N/A   Clear
8:55 PM 64.4 °F 41.0 °F 42% 29.70 in 10.0 mi NE 8.1 mph - N/A   Clear
9:15 PM 62.6 °F 41.0 °F 45% 29.71 in 10.0 mi North 6.9 mph - N/A   Clear
9:35 PM 62.6 °F 41.0 °F 45% 29.72 in 10.0 mi NNW 11.5 mph - N/A   Clear
9:55 PM 64.4 °F 41.0 °F 42% 29.72 in 10.0 mi NW 13.8 mph - N/A   Scattered Clouds
10:15 PM 62.6 °F 41.0 °F 45% 29.76 in 10.0 mi NNW 17.3 mph 24.2 mph N/A   Scattered Clouds
10:35 PM 60.8 °F 42.8 °F 52% 29.79 in 10.0 mi NNW 19.6 mph 31.1 mph N/A   Clear
10:55 PM 59.0 °F 42.8 °F 55% 29.77 in 5.0 mi NNW 28.8 mph 40.3 mph N/A   Haze
11:15 PM 55.4 °F 42.8 °F 63% 29.79 in 7.0 mi NNW 24.2 mph 38.0 mph N/A   Clear
11:35 PM 53.6 °F 41.0 °F 62% 29.82 in 10.0 mi NNW 28.8 mph 36.8 mph N/A   Clear
11:55 PM 51.8 °F 41.0 °F 67% 29.85 in 10.0 mi NNW 18.4 mph 36.8 mph N/A   Clear